Terminal Aerodrome Forecast
Issued by NWS

Home | Current Version | Previous Version | Text Only | Print | Product List | Glossary On
Versions: 1 2 3 4 5 6 7 8 9 10 11 12 13 14 15 16
000
FTUS44 KCRP 301700
TAFALI
TAF
KALI 301739Z 3018/0118 09010KT P6SM SCT025 BKN100
     FM302300 09012KT P6SM SCT040
     FM010300 12007KT P6SM SCT015
     FM010700 16004KT 5SM BR SCT012
      TEMPO 0110/0112 2SM BR BKN012
     FM011600 16010KT P6SM SCT025=

USA.gov is the U.S. government's official web portal to all federal, state and local government web resources and services.